User: anonymous   Login
Location: Croydon
(51.3762°N, 0.0982°W)
Time: 22:00:36
(UTC+01:00)
Language:

KKS-1 - Orbit

View from above orbital plane
View from above orbital plane
View from above satellite
View from above satellite

Ground track
Ground track

The orbit data is extracted from the following two-line orbital elements,

1 33499U 09002H   19286.86140334 +.00000085 +00000-0 +20510-4 0  9999
2 33499 098.3411 129.2666 0008881 185.9898 174.1206 14.75468868576074
Epoch (UTC): 13 October 2019 20:40:25
Eccentricity: 0.0008881
inclination: 98.3411°
perigee height: 637 km
apogee height: 650 km
right ascension of ascending node: 129.2666°
argument of perigee: 185.9898°
revolutions per day: 14.75468868
mean anomaly at epoch: 174.1206°
orbit number at epoch: 57607

The dashed part of the orbit path shows where the satellite is in the earth's shadow,  

DLR